Regional Weather Roundup
Issued by NWS

Home | Current Version | Previous Version | Text Only | Print | Product List | Glossary On
Versions: 1 2 3 4 5 6 7 8 9 10 11 12 13 14 15 16 17 18 19 20 21 22 23 24 25 26 27
000
ASUS44 KBMX 200410
RWRAL

ALABAMA REGIONAL WEATHER ROUNDUP
NATIONAL WEATHER SERVICE BIRMINGHAM AL
1000 PM CST THU JAN 19 2017

NOTE: "FAIR" INDICATES FEW OR NO CLOUDS BELOW 12,000 FEET
WITH NO SIGNIFICANT WEATHER AND/OR OBSTRUCTIONS TO VISIBILITY.

THE REMARK "TC" DENOTES TEMPERATURE IN DEGREES CELSIUS.

ALZ001>011-014-016>018-020-200500-
NORTH ALABAMA

CITY           SKY/WX    TMP DP  RH WIND       PRES   REMARKS
MUSCLE SHOALS  CLOUDY    58  56  93 S5        29.74F
HUNTSVILLE     RAIN      62  61  96 SW12      29.74S FOG
DECATUR        CLOUDY    62  62 100 SW7       29.75R
HALEYVILLE     LGT RAIN  56  55  97 CALM      29.78F
GADSDEN        CLOUDY    62  61  96 S6        29.82R
$$

ALZ012-013-022-023-030>036-040>044-200500-
WEST CENTRAL ALABAMA

CITY           SKY/WX    TMP DP  RH WIND       PRES   REMARKS
TUSCALOOSA     CLOUDY    63  62  97 S9        29.78F
$$

ALZ015-024>027-033>036-040>044-200500-
CENTRAL ALABAMA

CITY           SKY/WX    TMP DP  RH WIND       PRES   REMARKS
BIRMINGHAM     CLOUDY    63  61  93 S10       29.83R
MONTGOMERY     RAIN      68  63  84 SE15G21   29.82F
SHELBY CO ARPT CLOUDY    63  63 100 VRB6      29.82S
MAXWELL AFB    LGT RAIN  67  66  99 SE16      29.79F
GREENVILLE     LGT RAIN  65  62  90 S9        29.83F
$$

ALZ019-021-028-029-037-038-045>048-200500-
EAST CENTRAL ALABAMA

CITY           SKY/WX    TMP DP  RH WIND       PRES   REMARKS
ANNISTON       LGT RAIN  63  61  93 CALM      29.83F
ALEXANDER CITY LGT RAIN  65  64  96 SE5       29.84F
AUBURN         RAIN      65  64  97 S12       29.90R
$$

ALZ051>064-200500-
SOUTHWEST ALABAMA

CITY           SKY/WX    TMP DP  RH WIND       PRES   REMARKS
MOBILE         CLOUDY    64  63  96 SW3       29.86R
BROOKLEY FIELD CLOUDY    66  65  96 S6        29.86R
EVERGREEN      LGT RAIN  64  62  93 SE7       29.84F
$$

ALZ049-050-065>069-200500-
SOUTHEAST ALABAMA

CITY           SKY/WX    TMP DP  RH WIND       PRES   REMARKS
DOTHAN         RAIN      67  67 100 S8        29.95R
OZARK          LGT RAIN  68  66  94 SW6       29.90R
TROY           RAIN      66  66 100 S9        29.90F FOG
EUFAULA        LGT RAIN  68  63  84 S6        29.90R
$$




USA.gov is the U.S. government's official web portal to all federal, state and local government web resources and services.